Regional Weather Roundup
Issued by NWS

Home | Current Version | Previous Version | Text Only | Print | Product List | Glossary Off
Versions: 1 2 3 4 5 6 7 8 9 10 11 12 13 14 15 16 17 18 19 20 21 22 23 24 25 26 27 28 29 30 31 32 33 34 35 36 37 38 39 40 41 42 43 44 45 46 47 48 49 50

000
ASUS43 KMKX 301900
RWRWI

WISCONSIN REGIONAL WEATHER ROUNDUP
NATIONAL WEATHER SERVICE MILWAUKEE/SULLIVAN WI
200 PM CDT TUE SEP 30 2014

NOTE: "FAIR" INDICATES FEW OR NO CLOUDS BELOW 12,000 FEET WITH NO
SIGNIFICANT WEATHER AND/OR OBSTRUCTIONS TO VISIBILITY.

WIZ001-002-006>008-014>016-023>028-302000-
NORTHWEST WISCONSIN

CITY           SKY/WX    TMP DP  RH WIND       PRES   REMARKS
SUPERIOR ARPT  CLOUDY    49  43  78 E13G18    30.07F
ASHLAND        MOSUNNY   51  42  71 N12       30.09F
HAYWARD        SUNNY     56  40  55 VRB6      30.04F
SIREN          SUNNY     53  41  64 E6        30.03F
CUMBERLAND     SUNNY     50  39  66 E6        30.03F
RICE LAKE      SUNNY     51  41  67 E7        30.05F
CHETEK         SUNNY     51  42  70 NE6       30.04F
LADYSMITH      SUNNY     56  42  58 S5        30.06F
EAU CLAIRE     NOT AVBL
MENOMONIE      SUNNY     52  40  64 E8        30.04F
NEW RICHMOND   MOSUNNY   52  41  66 E8        30.02F
OSCEOLA        MOSUNNY   53  42  68 SE9       30.04F
$$

WIZ003>005-009-010-017-018-302000-
NORTH CENTRAL WISCONSIN

CITY           SKY/WX    TMP DP  RH WIND       PRES   REMARKS
MANITOWISH WTR MOSUNNY   48  41  76 CALM      30.08F
ARBOR VITAE    MOSUNNY   52  43  73 SE3       30.07F
WOODRUFF       MOSUNNY   52  43  73 SE3       30.07F
RHINELANDER    SUNNY     50  40  68 VRB5      30.07F
EAGLE RIVER    SUNNY     50  39  66 CALM      30.06F
LAND O LAKES   CLOUDY    50  42  75 N3        30.08F
PHILLIPS       SUNNY     55  41  61 SE5       30.04F
TOMAHAWK       SUNNY     51  40  67 CALM      30.07F
MEDFORD        SUNNY     53  42  68 E6        30.05F
MERRILL        SUNNY     54  42  63 CALM      30.05F
$$

WIZ029-030-035-036-043>047-302000-
CENTRAL WISCONSIN

CITY           SKY/WX    TMP DP  RH WIND       PRES   REMARKS
WAUSAU         SUNNY     51  41  68 E6        30.05F
MOSINEE        SUNNY     52  43  71 SE5       30.07F
MARSHFIELD     PTSUNNY   51  42  71 SE8       30.05F
STEVENS POINT  CLOUDY    46  39  77 CALM      30.08F
WAUPACA        CLOUDY    51  41  69 E6        30.09F
WAUTOMA        NOT AVBL
WISC RAPIDS    CLOUDY    52  41  66 E7        30.08F
CAMP DOUGLAS   CLOUDY    48  46  93 E10       30.07F
$$

WIZ011>013-019>022-031-037>040-048>050-302000-
NORTHEAST WISCONSIN

CITY           SKY/WX    TMP DP  RH WIND       PRES   REMARKS
ANTIGO         NOT AVBL
SHAWANO        CLOUDY    48  41  75 CALM      30.10F
OCONTO         CLOUDY    48  41  77 CALM      30.09S
STURGEON BAY   NOT AVBL
GREEN BAY      CLOUDY    49  43  80 NE5       30.09F
MANITOWOC      NOT AVBL
APPLETON       CLOUDY    46  39  76 N6        30.09F
CLINTONVILLE   CLOUDY    46  39  76 NE3       30.09F
OSHKOSH        CLOUDY    49  43  80 NE9       30.07F
$$

WIZ032>034-041-042-053>061-302000-
SOUTHWEST WISCONSIN

CITY           SKY/WX    TMP DP  RH WIND       PRES   REMARKS
LA CROSSE      CLOUDY    54  43  66 E6        30.04F
SPARTA         PTSUNNY   51  40  68 E7        30.07F
VIROQUA        PTSUNNY   53  43  66 E7        30.04F
BOSCOBEL       CLOUDY    51  42  71 SE7       30.05F
PRAIRIE DU CHI PTSUNNY   55  43  65 NE5       30.03F
PLATTEVILLE    CLOUDY    53  44  73 E7        30.05F
$$

WIZ056-057-062-063-064-067-068-302000-
SOUTH CENTRAL WISCONSIN

CITY           SKY/WX    TMP DP  RH WIND       PRES   REMARKS
REEDSBURG      CLOUDY    46  41  82 E3        30.07F
BARABOO/DELLS  CLOUDY    47  40  76 E3        30.08S
LONE ROCK      NOT AVBL
MINERAL POINT  CLOUDY    52  43  71 E6        30.05F
MADISON        CLOUDY    49  42  77 NE8       30.06F
MIDDLETON      CLOUDY    49  42  75 E7        30.07F
WATERTOWN      CLOUDY    48  42  80 E5        30.07F
MONROE         CLOUDY    48  43  81 NE7       30.05F
JANESVILLE     PTSUNNY   54  41  62 NE8       30.04F
$$

WIZ051-052-058>065-066-070>072-302000-
SOUTHEAST WISCONSIN

CITY           SKY/WX    TMP DP  RH WIND       PRES   REMARKS
MILWAUKEE      PTSUNNY   53  45  74 N14       30.06F
WAUKESHA       CLOUDY    50  41  71 CALM      30.07F
MILWAUKEE/TIMM PTSUNNY   55  43  62 NE8G20    30.06F
RACINE         CLOUDY    52  46  80 N17       30.07F
BURLINGTON     CLOUDY    51  41  69 N7        30.05F
KENOSHA        PTSUNNY   56  46  69 NE12      30.05F
FOND DU LAC    CLOUDY    49  42  77 N6        30.07F
SHEBOYGAN      CLOUDY    50  42  74 NE3       30.08F
WEST BEND      CLOUDY    50  41  71 NE7       30.06F
JUNEAU         CLOUDY    47  42  80 NE3       30.08S
$$

LSZ147-162-302000-
LAKE SUPERIOR

STATION/POSITION TIME  TEMP    WIND        PRES    WAVE
                       AIR SEA DIR/SP/G            HT/PER
                 (UTC) (F)     (DEG/KT/KT) (MB)    (FT/S)
W MID LAKE BUOY  1750   45 50   80/ 10/ 14 1020.6F   2/ 6
DEVILS ISLAND    1800   45     100/ 14/ 16 1020.6F
SAXON HARBOR     1800   47      40/  9/ 11 1019.3
$$

LMZ867-665-643>646-302000-
LAKE MICHIGAN

STATION/POSITION TIME  TEMP    WIND        PRES    WAVE
                       AIR SEA DIR/SP/G            HT/PER
                 (UTC) (F)     (DEG/KT/KT) (MB)    (FT/S)
CHAMBERS ISLAND  1800   49     360/  8/ 12 1019.0F
S GREEN BAY BUOY 1800   48                 1019.8F
N MID LAKE BUOY  1750   49 58   10/ 10/ 14 1018.5F   2/ 4
NORTHPORT PIER   1800   48     360/ 10/ 12 1018.6F
KEWAUNEE LAKESHO 1800   49      30/  8/ 12 1017.7F
SHEBOYGAN LAKESH 1800   48 54   10/ 14/ 15 1019.4R
PORT WASHINGTON  1800   53     340/  3/  9 1019.3S
ATWATER BUOY     1800   51     360/ 14/ 16 1019.4S
MILWAUKEE LAKESH 1800   51     360/ 11/ 15   N/A
S MID LAKE BUOY  1750   53 62   10/ 12/ 16 1017.4R   5/ 7
KENOSHA   LAKESH 1800   51      20/ 14/ 20 1017.6F
$$

TC  - TEMPERATURE IN CELSIUS
VSB - VISIBILITY IN STATUTE MILES
WCI - WIND CHILL INDEX
HX  - HEAT INDEX



USA.gov is the U.S. government's official web portal to all federal, state and local government web resources and services.